Location: Unspecified
(51.0950°N, 12.9690°E)
Time: 22:27:49
(UTC+00:00)

EO-79 - Pass Details

Date: 25 April 2024
Orbit: 562 x 575 km, 98.0° (Epoch: 28 May)

Event Time Altitude Azimuth Distance (km) Brightness Sun altitude
Rises 02:47:02 0° 11° (N) 2,800 ? -9.7°
Reaches altitude 10° 02:49:12 10° 8° (N) 1,898 ? -9.5°
Maximum altitude 02:53:15 59° 289° (WNW) 673 ? -8.9°
Drops below altitude 10° 02:57:16 10° 210° (SSW) 1,887 ? -8.4°
Enters shadow 02:57:41 - 209° (SSW) 2,059 ? -8.4°
